Elmendorf Air Force Base, AK

12:03 AM AKST on February 10, 2016 (GMT -0900)
Elmendorf Air Force Base

Weather History for PAED - November, 2013

Change the Weather History Date:

Tuesday, November 5, 2013

  Actual Average Record
Temperature  
Mean Temperature 36 °F -  
Max Temperature 40 °F 30 °F 55 °F (2002)
Min Temperature 28 °F 20 °F -5 °F (1975)
Degree Days  
Heating Degree Days 29    
Moisture  
Dew Point 23 °F    
Average Humidity 64    
Maximum Humidity 89    
Minimum Humidity 41    
Precipitation  
Precipitation 0.00 in - - ()
Sea Level Pressure  
Sea Level Pressure 29.69 in    
Wind  
Wind Speed 2 mph (West)    
Max Wind Speed 9 mph    
Max Gust Speed -    
Visibility 10 miles    
Events      
Averages and records for this station are not official NWS values.
T = Trace of Precipitation, MM = Missing Value Source: NWS Daily Summary

Daily Weather History Graph

Daily Weather History Graph

Search for Another Location

Airport or City:

Trip Planner

Search our weather history database for the weather conditions in past years. The results will help you decide how hot, cold, wet, or windy it might be!

Date:

Astronomy

Nov. 05, 2013 Rise Set
Actual Time 8:39 AM AKST 4:45 PM AKST
Civil Twilight 7:50 AM AKST 5:33 PM AKST
Nautical Twilight 6:58 AM AKST 6:25 PM AKST
Astronomical Twilight 6:08 AM AKST 7:16 PM AKST
Moon 11:34 AM AKST (11/5) 6:26 PM AKST (11/5)
Length of Visible Light 9h 43m
Length of Day
8h 05m
Waxing Crescent, 7% of the Moon is Illuminated
Nov 5
Waxing Crescent
Nov 9
First Quarter
Nov 17
Full
Nov 25
Last Quarter
Dec 2
New

Hourly Weather History & Observations

Time (AKST) Temp. Windchill Dew Point Humidity Pressure Visibility Wind Dir Wind Speed Gust Speed Precip Events Conditions
12:58 AM 33.1 °F - 30.2 °F 89% 29.37 in 10.0 mi Calm Calm - N/A   Clear
1:58 AM 36.3 °F - 27.5 °F 70% 29.39 in 10.0 mi Calm Calm - N/A   Clear
2:58 AM 35.4 °F 29.7 °F 28.4 °F 76% 29.42 in 10.0 mi West 6.9 mph - N/A   Clear
3:58 AM 33.3 °F - 29.8 °F 87% 29.44 in 10.0 mi Calm Calm - N/A   Clear
4:58 AM 33.1 °F - 29.7 °F 87% 29.47 in 10.0 mi Calm Calm - N/A   Clear
5:58 AM 33.3 °F - 30.0 °F 88% 29.49 in 10.0 mi Calm Calm - N/A   Overcast
6:58 AM 33.6 °F 30.6 °F 28.9 °F 83% 29.53 in 10.0 mi North 3.5 mph - N/A   Partly Cloudy
7:58 AM 33.1 °F - 29.5 °F 87% 29.57 in 10.0 mi Calm Calm - N/A   Clear
8:58 AM 33.8 °F - 29.3 °F 84% 29.60 in 10.0 mi Calm Calm - N/A   Clear
8:59 AM 33.8 °F - 30.2 °F 87% 29.58 in 10.0 mi Calm Calm - N/A   Overcast
9:58 AM 35.1 °F - 30.0 °F 82% 29.62 in 10.0 mi Calm Calm - N/A   Partly Cloudy
10:58 AM 38.8 °F 34.6 °F 26.4 °F 61% 29.66 in 10.0 mi West 5.8 mph - N/A   Overcast
11:58 AM 40.3 °F 35.5 °F 24.3 °F 53% 29.70 in 10.0 mi WSW 6.9 mph - N/A   Overcast
12:58 PM 40.5 °F 37.3 °F 23.5 °F 51% 29.73 in 10.0 mi Variable 4.6 mph - N/A   Overcast
1:58 PM 40.1 °F 36.9 °F 22.6 °F 50% 29.74 in 10.0 mi WSW 4.6 mph - N/A   Mostly Cloudy
2:58 PM 39.7 °F 35.6 °F 21.2 °F 48% 29.78 in 10.0 mi Variable 5.8 mph - N/A   Scattered Clouds
3:58 PM 38.5 °F 34.1 °F 18.1 °F 44% 29.81 in 10.0 mi Variable 5.8 mph - N/A   Mostly Cloudy
4:58 PM 36.9 °F - 16.3 °F 43% 29.83 in 10.0 mi WNW 1.2 mph - N/A   Clear
5:58 PM 36.1 °F - 15.6 °F 43% 29.86 in 10.0 mi Calm Calm - N/A   Clear
6:58 PM 35.6 °F 28.6 °F 15.1 °F 43% 29.88 in 10.0 mi West 9.2 mph - N/A   Overcast
7:58 PM 34.9 °F 27.7 °F 13.1 °F 41% 29.90 in 10.0 mi West 9.2 mph - N/A   Overcast
8:58 PM 32.4 °F - 14.0 °F 47% 29.91 in 10.0 mi West 1.2 mph - N/A   Clear
9:58 PM 32.4 °F 26.9 °F 12.4 °F 44% 29.94 in 10.0 mi Variable 5.8 mph - N/A   Mostly Cloudy
10:58 PM 32.0 °F - 14.0 °F 48% 29.96 in 10.0 mi Calm Calm - N/A   Overcast
11:58 PM 28.4 °F - 16.3 °F 61% 29.98 in 10.0 mi Calm Calm - N/A   Clear